User: anonymous   Login
Location: Unspecified
(0.0000°N, 0.0000°E)
Time: 18:05:54
(UTC+00:00)
Language:

METEOR-M - Orbit

View from above orbital plane
View from above orbital plane
View from above satellite
View from above satellite

Ground track
Ground track

The orbit data is extracted from the following two-line orbital elements,

1 35865U 09049A   17060.10756408  .00000011  00000-0  23687-4 0  9996
2 35865  98.4319  86.5702 0003569 100.8351 259.3229 14.22099354386741
Epoch (UTC): 01 March 2017 02:34:53
Eccentricity: 0.0003569
inclination: 98.4319°
perigee height: 815 km
apogee height: 821 km
right ascension of ascending node: 86.5702°
argument of perigee: 100.8351°
revolutions per day: 14.22099354
mean anomaly at epoch: 259.3229°
orbit number at epoch: 38674

The dashed part of the orbit path shows where the satellite is in the earth's shadow,  

DLR